Joensuu, Finland

6:41 PM EEST on May 21, 2018 (GMT +0300)
Joensuu

Weather History for EFJO - October, 2013

Change the Weather History Date:

Sunday, October 20, 2013

  Actual Average (WUND) Record (WUND)
Temperature  
Mean Temperature 30 °F -  
Max Temperature 33 °F - - (-1)
Min Temperature 28 °F - - (-1)
Degree Days  
Heating Degree Days 34    
Moisture  
Dew Point 25 °F    
Average Humidity 79    
Maximum Humidity 86    
Minimum Humidity 65    
Precipitation  
Precipitation 0.00 in 0.07 in - ()
Sea Level Pressure  
Sea Level Pressure 29.74 in    
Wind  
Wind Speed 11 mph ()    
Max Wind Speed 15 mph    
Max Gust Speed 26 mph    
Visibility 6.2 miles    
Events      
Averages and records for this station are not official NWS values.
T = Trace of Precipitation, MM = Missing Value Source: Averaged Metar Reports

Daily Weather History Graph

Daily Weather History Graph

Search for Another Location

Airport or City:

Astronomy

Oct. 20, 2013 Rise Set
Actual Time 8:01 AM EEST 5:29 PM EEST
Civil Twilight 7:14 AM EEST 6:16 PM EEST
Nautical Twilight 6:21 AM EEST 7:09 PM EEST
Astronomical Twilight 5:29 AM EEST 8:01 PM EEST
Moon 5:48 PM EEST (10/20) 9:51 AM EEST (10/20)
Length of Visible Light 11h 02m
Length of Day
9h 28m
Full, 98% of the Moon is Illuminated
Oct 20
Full
Oct 27
Last Quarter
Nov 3
New
Nov 10
First Quarter
Nov 17
Full

Hourly Weather History & Observations

Time (EEST) Temp. Windchill Dew Point Humidity Pressure Visibility Wind Dir Wind Speed Gust Speed Precip Events Conditions
12:20 AM 28.4 °F 19.1 °F 24.8 °F 86% 29.62 in 6.2 mi West 10.4 mph - N/A   Scattered Clouds
12:50 AM 30.2 °F 20.2 °F 24.8 °F 80% 29.62 in 6.2 mi West 12.7 mph 26.5 mph N/A   Mostly Cloudy
1:20 AM 30.2 °F 19.8 °F 24.8 °F 80% 29.65 in 6.2 mi West 13.8 mph - N/A   Mostly Cloudy
1:50 AM 30.2 °F 20.2 °F 24.8 °F 80% 29.65 in 6.2 mi West 12.7 mph - N/A   Mostly Cloudy
2:20 AM 28.4 °F 18.0 °F 24.8 °F 86% 29.65 in 6.2 mi West 12.7 mph - N/A   Partly Cloudy
2:50 AM 28.4 °F 18.0 °F 24.8 °F 86% 29.65 in 6.2 mi West 12.7 mph - N/A   Partly Cloudy
3:20 AM 28.4 °F 17.0 °F 23.0 °F 80% 29.65 in - West 15.0 mph - N/A   Clear
3:50 AM 28.4 °F 18.0 °F 23.0 °F 80% 29.68 in - West 12.7 mph - N/A   Clear
4:20 AM 28.4 °F 18.0 °F 24.8 °F 86% 29.68 in - West 12.7 mph - N/A   Clear
4:50 AM 28.4 °F 18.5 °F 24.8 °F 86% 29.68 in - West 11.5 mph - N/A   Clear
5:20 AM 28.4 °F 18.5 °F 24.8 °F 86% 29.68 in - West 11.5 mph - N/A   Clear
5:50 AM 28.4 °F 18.5 °F 24.8 °F 86% 29.68 in - West 11.5 mph - N/A   Clear
6:20 AM 28.4 °F 18.0 °F 24.8 °F 86% 29.68 in - West 12.7 mph - N/A   Clear
6:50 AM 28.4 °F 19.1 °F 24.8 °F 86% 29.68 in - West 10.4 mph - N/A   Clear
7:20 AM 28.4 °F 18.5 °F 24.8 °F 86% 29.68 in - West 11.5 mph - N/A   Clear
7:50 AM 28.4 °F 19.1 °F 24.8 °F 86% 29.71 in - West 10.4 mph - N/A   Clear
8:20 AM 28.4 °F 19.1 °F 24.8 °F 86% 29.71 in - West 10.4 mph - N/A   Clear
8:50 AM 28.4 °F 19.7 °F 24.8 °F 86% 29.71 in - West 9.2 mph - N/A   Clear
9:20 AM 28.4 °F 19.1 °F 24.8 °F 86% 29.71 in - West 10.4 mph - N/A   Clear
9:50 AM 30.2 °F 20.2 °F 24.8 °F 80% 29.71 in - West 12.7 mph - N/A   Clear
10:20 AM 30.2 °F 20.8 °F 24.8 °F 80% 29.71 in - West 11.5 mph - N/A   Clear
10:50 AM 32.0 °F 23.0 °F 24.8 °F 75% 29.74 in - West 11.5 mph - N/A   Clear
11:20 AM 32.0 °F 23.6 °F 26.6 °F 80% 29.74 in - West 10.4 mph - N/A   Clear
11:50 AM 33.8 °F 24.8 °F 26.6 °F 75% 29.74 in 6.2 mi West 12.7 mph - N/A   Partly Cloudy
12:20 PM 33.8 °F 25.3 °F 26.6 °F 75% 29.74 in 6.2 mi West 11.5 mph - N/A   Partly Cloudy
12:50 PM 33.8 °F 24.8 °F 26.6 °F 75% 29.74 in 6.2 mi West 12.7 mph - N/A   Partly Cloudy
1:20 PM 33.8 °F 25.8 °F 26.6 °F 75% 29.77 in 6.2 mi West 10.4 mph - N/A   Partly Cloudy
1:50 PM 33.8 °F 24.8 °F 26.6 °F 75% 29.77 in 6.2 mi West 12.7 mph - N/A   Partly Cloudy
2:20 PM 33.8 °F 25.3 °F 24.8 °F 70% 29.77 in 6.2 mi West 11.5 mph - N/A   Partly Cloudy
2:50 PM 33.8 °F 25.3 °F 24.8 °F 70% 29.77 in - West 11.5 mph - N/A   Clear
3:20 PM 33.8 °F 24.8 °F 24.8 °F 70% 29.77 in - West 12.7 mph - N/A   Clear
3:50 PM 33.8 °F 25.8 °F 24.8 °F 70% 29.77 in - West 10.4 mph - N/A   Clear
4:20 PM 33.8 °F 25.8 °F 23.0 °F 65% 29.77 in - West 10.4 mph - N/A   Clear
4:50 PM 33.8 °F 24.8 °F 23.0 °F 65% 29.77 in - West 12.7 mph - N/A   Clear
5:20 PM 33.8 °F 26.4 °F 23.0 °F 65% 29.77 in - West 9.2 mph - N/A   Clear
5:50 PM 32.0 °F 24.2 °F 23.0 °F 69% 29.77 in - West 9.2 mph - N/A   Clear
6:20 PM 32.0 °F 24.8 °F 23.0 °F 69% 29.77 in - WSW 8.1 mph - N/A   Clear
6:50 PM 32.0 °F 24.2 °F 23.0 °F 69% 29.80 in - West 9.2 mph - N/A   Clear
7:20 PM 32.0 °F 24.2 °F 23.0 °F 69% 29.80 in - West 9.2 mph - N/A   Clear
7:50 PM 32.0 °F 23.0 °F 24.8 °F 75% 29.80 in - West 11.5 mph - N/A   Clear
8:20 PM 32.0 °F 23.6 °F 24.8 °F 75% 29.80 in - West 10.4 mph - N/A   Clear
8:50 PM 32.0 °F 23.6 °F 24.8 °F 75% 29.80 in - West 10.4 mph - N/A   Clear
9:20 PM 32.0 °F 24.2 °F 26.6 °F 80% 29.80 in - West 9.2 mph - N/A   Clear
9:50 PM 32.0 °F 24.8 °F 26.6 °F 80% 29.83 in 6.2 mi West 8.1 mph - N/A   Partly Cloudy
10:20 PM 30.2 °F 21.9 °F 26.6 °F 86% 29.83 in - West 9.2 mph - N/A   Clear
10:50 PM 32.0 °F 23.6 °F 26.6 °F 80% 29.83 in - West 10.4 mph - N/A   Clear
11:20 PM 30.2 °F 22.6 °F 26.6 °F 86% 29.83 in 6.2 mi West 8.1 mph - N/A   Partly Cloudy
11:50 PM 30.2 °F 22.6 °F 26.6 °F 86% 29.83 in 6.2 mi West 8.1 mph - N/A   Scattered Clouds